Syracuse, NY

10:39 AM EST on February 14, 2016 (GMT -0500)
Syracuse Hancock International

Weather History for KSYR - September, 2014

Change the Weather History Date:

Thursday, September 11, 2014

  Actual Average Record
Temperature  
Mean Temperature 67 °F 64 °F  
Max Temperature 76 °F 74 °F 97 °F (1931)
Min Temperature 57 °F 54 °F 37 °F (1918)
Degree Days  
Heating Degree Days 0 3  
Month to date heating degree days 1 25  
Since 1 July heating degree days 12 51  
Cooling Degree Days 2 2  
Month to date cooling degree days 64 31  
Year to date cooling degree days 623 544  
Growing Degree Days 17 (Base 50)    
Moisture  
Dew Point 61 °F    
Average Humidity 71    
Maximum Humidity 78    
Minimum Humidity 64    
Precipitation  
Precipitation 0.23 in 0.12 in 1.47 in (1920)
Month to date precipitation 0.76 1.29  
Year to date precipitation 29.80 25.88  
Snow  
Snow 0.00 in 0.00 in 0.00 in (2002)
Month to date snowfall 0.0 0.0  
Since 1 July snowfall 0.0 0.0  
Since 1 September snowfall 0.0 0.0  
Snow Depth 0.00 in    
Sea Level Pressure  
Sea Level Pressure 29.79 in    
Wind  
Wind Speed 16 mph (WSW)    
Max Wind Speed 32 mph    
Max Gust Speed 43 mph    
Visibility 8 miles    
Events Rain    
T = Trace of Precipitation, MM = Missing Value Source: NWS Daily Summary

Daily Weather History Graph

Daily Weather History Graph

Search for Another Location

Airport or City:

Trip Planner

Search our weather history database for the weather conditions in past years. The results will help you decide how hot, cold, wet, or windy it might be!

Date:

Astronomy

Sep. 11, 2014 Rise Set
Actual Time 6:39 AM EDT 7:21 PM EDT
Civil Twilight 6:10 AM EDT 7:50 PM EDT
Nautical Twilight 5:36 AM EDT 8:24 PM EDT
Astronomical Twilight 5:01 AM EDT 8:59 PM EDT
Moon 8:52 PM EDT (9/11) 9:39 AM EDT (9/11)
Length of Visible Light 13h 39m
Length of Day
12h 42m
Waning Gibbous, 91% of the Moon is Illuminated
Sep 11
Waning Gibbous
Sep 15
Last Quarter
Sep 24
New
Oct 1
First Quarter
Oct 8
Full

Hourly Weather History & Observations

Time (EDT) Temp. Dew Point Humidity Pressure Visibility Wind Dir Wind Speed Gust Speed Precip Events Conditions
12:54 AM 73.0 °F 60.1 °F 64% 29.76 in 10.0 mi South 17.3 mph 26.5 mph N/A   Overcast
1:54 AM 73.0 °F 61.0 °F 66% 29.73 in 10.0 mi South 18.4 mph 26.5 mph 0.00 in Rain Light Rain
2:54 AM 73.0 °F 62.1 °F 68% 29.72 in 10.0 mi South 19.6 mph 38.0 mph 0.00 in Rain Light Rain
3:54 AM 73.0 °F 62.1 °F 68% 29.68 in 10.0 mi South 16.1 mph 36.8 mph 0.00 in   Overcast
4:54 AM 73.0 °F 62.1 °F 68% 29.66 in 10.0 mi South 29.9 mph 43.7 mph N/A   Overcast
5:54 AM 73.0 °F 63.0 °F 71% 29.65 in 10.0 mi South 18.4 mph 35.7 mph N/A   Mostly Cloudy
6:54 AM 73.9 °F 64.0 °F 71% 29.65 in 10.0 mi South 20.7 mph 25.3 mph N/A   Overcast
7:54 AM 75.0 °F 64.9 °F 71% 29.64 in 10.0 mi SSW 17.3 mph 27.6 mph N/A   Overcast
8:54 AM 75.9 °F 64.9 °F 69% 29.63 in 10.0 mi SSW 27.6 mph 34.5 mph 0.00 in   Overcast
9:11 AM 75.0 °F 66.0 °F 73% 29.67 in 2.0 mi SW 20.7 mph 32.2 mph 0.00 in Rain Light Rain
9:13 AM 73.9 °F 66.0 °F 76% 29.66 in 1.8 mi SW 19.6 mph 32.2 mph 0.00 in Rain Rain
9:15 AM 73.9 °F 66.0 °F 76% 29.67 in 2.0 mi South 23.0 mph 33.4 mph 0.01 in Rain Rain
9:17 AM 73.9 °F 66.9 °F 79% 29.67 in 1.2 mi SSW 20.7 mph 33.4 mph 0.02 in Rain Heavy Rain
9:22 AM 73.0 °F 66.9 °F 81% 29.67 in 1.2 mi SSW 20.7 mph 33.4 mph 0.07 in Rain Heavy Rain
9:32 AM 72.0 °F 68.0 °F 87% 29.67 in 2.0 mi South 15.0 mph - 0.16 in Rain Heavy Rain
9:45 AM 73.0 °F 68.0 °F 84% 29.67 in 5.0 mi South 13.8 mph - 0.17 in Rain Light Rain
9:54 AM 73.0 °F 68.0 °F 84% 29.66 in 10.0 mi SW 8.1 mph - 0.17 in Rain Light Rain
10:26 AM 73.0 °F 68.0 °F 84% 29.70 in 10.0 mi West 11.5 mph 18.4 mph 0.00 in Rain Light Rain
10:33 AM 73.0 °F 68.0 °F 84% 29.72 in 2.0 mi WNW 13.8 mph - 0.00 in Rain Light Rain
10:35 AM 72.0 °F 68.0 °F 87% 29.72 in 1.0 mi WNW 15.0 mph 19.6 mph 0.01 in Rain Heavy Rain
10:42 AM 71.1 °F 68.0 °F 90% 29.72 in 2.0 mi WNW 12.7 mph - 0.03 in Rain Light Rain
10:48 AM 71.6 °F 68.0 °F 88% 29.72 in 3.0 mi West 11.5 mph - 0.04 in Rain Rain
10:54 AM 72.0 °F 68.0 °F 87% 29.71 in 5.0 mi WSW 15.0 mph 20.7 mph 0.06 in Rain Rain
11:11 AM 72.0 °F 68.0 °F 87% 29.74 in 10.0 mi WNW 18.4 mph 26.5 mph 0.00 in Rain Light Rain
11:16 AM 70.0 °F 64.9 °F 84% 29.74 in 10.0 mi WNW 16.1 mph 26.5 mph 0.00 in   Overcast
11:25 AM 69.1 °F 64.0 °F 84% 29.75 in 10.0 mi WNW 16.1 mph 24.2 mph 0.00 in   Overcast
11:54 AM 68.0 °F 63.0 °F 84% 29.75 in 10.0 mi WNW 10.4 mph 21.9 mph 0.00 in   Overcast
12:54 PM 66.0 °F 57.9 °F 75% 29.80 in 10.0 mi WNW 20.7 mph 28.8 mph N/A   Overcast
1:02 PM 66.0 °F 57.9 °F 75% 29.82 in 10.0 mi WNW 18.4 mph 28.8 mph N/A   Overcast
1:54 PM 66.0 °F 57.0 °F 73% 29.85 in 10.0 mi WNW 15.0 mph - N/A   Overcast
2:54 PM 66.0 °F 55.0 °F 68% 29.86 in 10.0 mi WNW 16.1 mph 24.2 mph N/A   Overcast
3:54 PM 64.9 °F 54.0 °F 68% 29.88 in 10.0 mi WNW 19.6 mph 23.0 mph N/A   Overcast
4:21 PM 64.0 °F 54.0 °F 70% 29.92 in 10.0 mi WNW 18.4 mph 23.0 mph N/A   Overcast
4:54 PM 64.0 °F 53.1 °F 67% 29.92 in 10.0 mi WNW 19.6 mph 25.3 mph N/A   Overcast
5:54 PM 62.1 °F 53.1 °F 72% 29.97 in 10.0 mi WNW 17.3 mph 27.6 mph N/A   Overcast
6:41 PM 61.0 °F 53.1 °F 75% 29.99 in 10.0 mi West 15.0 mph 21.9 mph N/A   Overcast
6:54 PM 61.0 °F 53.1 °F 75% 29.99 in 10.0 mi West 13.8 mph 21.9 mph N/A   Overcast
7:41 PM 61.0 °F 52.0 °F 72% 30.01 in 10.0 mi West 12.7 mph - N/A   Overcast
7:54 PM 61.0 °F 52.0 °F 72% 30.00 in 10.0 mi West 12.7 mph 21.9 mph N/A   Overcast
8:54 PM 60.1 °F 52.0 °F 75% 30.03 in 10.0 mi WNW 12.7 mph - N/A   Overcast
9:54 PM 59.0 °F 51.1 °F 75% 30.04 in 10.0 mi WNW 8.1 mph - 0.00 in Rain Light Rain
10:54 PM 59.0 °F 51.1 °F 75% 30.06 in 10.0 mi WNW 9.2 mph - 0.00 in   Overcast
11:54 PM 57.9 °F 50.0 °F 75% 30.08 in 10.0 mi NW 8.1 mph - 0.00 in   Overcast